Location: College Park
(38.9810°N, 76.9370°W)
Time: 22:18:57

N. Korean satellite - Pass Details

Date: 17 March 2018
Orbit: 460 x 512 km, 97.2° (Epoch: 17 March)

Event Time Altitude Azimuth Distance (km) Brightness Sun altitude
Rises 19:35:22 0° 191° (S) 2,540 10.3 -4.4°
Reaches altitude 10° 19:37:36 10° 203° (SSW) 1,674 9.6 -4.9°
Maximum altitude 19:40:45 28° 264° (W) 958 9.1 -5.5°
Drops below altitude 10° 19:43:58 10° 325° (NW) 1,712 9.9 -6.1°
Sets 19:46:17 0° 337° (NNW) 2,609 10.7 -6.5°
